LVDTB SADF-SAZM

Flight info

Callsign LVDTB
Flight time 0h 53m
Altitude 32000
Route EZE DCT GBE/N0431F230 W29 VOTRA VOTRA2U
Aircraft C25C/M-SDE2E3FGHRWXY/LB1

Departure

Time 2026-05-07 22:02
Airport San Fernando Airport (SADF)

Arrival

Time 2026-05-07 22:55
Airport Ástor Piazzola International Airport (SAZM)
Time Latitude Longitude Altitude Speed Heading
2026-05-07 21:42 -34.45763 -58.58870 25 ft 0 kts 152°
2026-05-07 21:54 -34.45764 -58.58869 25 ft 0 kts 141°
2026-05-07 21:54 -34.45764 -58.58867 25 ft 1 kts 112°
2026-05-07 21:54 -34.45759 -58.58865 25 ft 1 kts 339°
2026-05-07 21:55 -34.45735 -58.58885 25 ft 0 kts 326°
2026-05-07 21:56 -34.45734 -58.58886 25 ft 1 kts 326°
2026-05-07 21:56 -34.45714 -58.58875 26 ft 8 kts 59°
2026-05-07 21:56 -34.45661 -58.58750 25 ft 26 kts 62°
2026-05-07 21:56 -34.45563 -58.58521 20 ft 36 kts 63°
2026-05-07 21:57 -34.45441 -58.58236 16 ft 42 kts 62°
2026-05-07 21:57 -34.45302 -58.57975 12 ft 7 kts 341°
2026-05-07 21:57 -34.45248 -58.58027 11 ft 15 kts 330°
2026-05-07 21:57 -34.45128 -58.58112 11 ft 24 kts 330°
2026-05-07 21:58 -34.45031 -58.58184 10 ft 19 kts 329°
2026-05-07 21:58 -34.44906 -58.58272 10 ft 7 kts 328°
2026-05-07 21:58 -34.44893 -58.58283 10 ft 0 kts 323°
2026-05-07 22:00 -34.44891 -58.58284 10 ft 3 kts 324°
2026-05-07 22:00 -34.44854 -58.58332 10 ft 12 kts 294°
2026-05-07 22:00 -34.44861 -58.58395 10 ft 0 kts 227°
2026-05-07 22:01 -34.44861 -58.58396 10 ft 1 kts 227°
2026-05-07 22:01 -34.45005 -58.58567 14 ft 78 kts 225°
2026-05-07 22:01 -34.45628 -58.59287 189 ft 156 kts 227°
2026-05-07 22:02 -34.46507 -58.60274 838 ft 189 kts 218°
2026-05-07 22:02 -34.47934 -58.60506 1762 ft 234 kts 175°
2026-05-07 22:02 -34.49574 -58.59982 2747 ft 254 kts 173°
2026-05-07 22:02 -34.51428 -58.59624 2944 ft 289 kts 179°
2026-05-07 22:03 -34.53464 -58.59633 2989 ft 280 kts 190°
2026-05-07 22:03 -34.55230 -58.60058 2980 ft 241 kts 198°
2026-05-07 22:03 -34.56848 -58.60498 2987 ft 246 kts 196°
2026-05-07 22:03 -34.58486 -58.60853 2988 ft 228 kts 194°
2026-05-07 22:04 -34.60195 -58.61189 2979 ft 251 kts 193°
2026-05-07 22:04 -34.61893 -58.61098 2974 ft 249 kts 172°
2026-05-07 22:04 -34.63472 -58.60518 3508 ft 219 kts 171°
2026-05-07 22:04 -34.64900 -58.60011 4283 ft 215 kts 169°
2026-05-07 22:05 -34.66350 -58.59474 4910 ft 224 kts 169°
2026-05-07 22:05 -34.67943 -58.58895 4978 ft 254 kts 168°
2026-05-07 22:05 -34.69724 -58.58236 4989 ft 280 kts 167°
2026-05-07 22:05 -34.71551 -58.57544 5000 ft 264 kts 167°
2026-05-07 22:06 -34.73256 -58.56908 4999 ft 248 kts 168°
2026-05-07 22:06 -34.74848 -58.56324 4955 ft 237 kts 168°
2026-05-07 22:06 -34.76345 -58.55774 5411 ft 206 kts 169°
2026-05-07 22:06 -34.77590 -58.55303 6094 ft 169 kts 169°
2026-05-07 22:07 -34.78593 -58.54908 6687 ft 143 kts 172°
2026-05-07 22:07 -34.79612 -58.54552 7336 ft 164 kts 170°
2026-05-07 22:07 -34.80792 -58.54167 8045 ft 187 kts 171°
2026-05-07 22:07 -34.82142 -58.53762 8801 ft 211 kts 171°
2026-05-07 22:08 -34.83646 -58.53344 9579 ft 233 kts 171°
2026-05-07 22:08 -34.85300 -58.52910 10301 ft 253 kts 171°
2026-05-07 22:08 -34.87087 -58.52468 11048 ft 271 kts 171°
2026-05-07 22:08 -34.88974 -58.52025 11805 ft 287 kts 172°
2026-05-07 22:09 -34.90989 -58.51573 12586 ft 302 kts 172°
2026-05-07 22:09 -34.93101 -58.51122 13373 ft 315 kts 172°
2026-05-07 22:09 -34.95309 -58.50668 14088 ft 327 kts 173°
2026-05-07 22:09 -34.97594 -58.50222 14808 ft 338 kts 174°
2026-05-07 22:10 -34.99949 -58.49779 15525 ft 347 kts 175°
2026-05-07 22:10 -35.02366 -58.49350 16267 ft 355 kts 176°
2026-05-07 22:10 -35.04845 -58.48928 17026 ft 362 kts 178°
2026-05-07 22:10 -35.07374 -58.48523 17798 ft 369 kts 179°
2026-05-07 22:11 -35.09946 -58.48130 18487 ft 376 kts 179°
2026-05-07 22:11 -35.12563 -58.47755 19157 ft 382 kts 180°
2026-05-07 22:11 -35.15221 -58.47392 19852 ft 388 kts 180°
2026-05-07 22:11 -35.17928 -58.47048 20570 ft 394 kts 180°
2026-05-07 22:12 -35.20676 -58.46717 21293 ft 400 kts 180°
2026-05-07 22:12 -35.23424 -58.46408 22019 ft 404 kts 181°
2026-05-07 22:12 -35.26255 -58.46107 22789 ft 409 kts 181°
2026-05-07 22:12 -35.29115 -58.45826 23507 ft 413 kts 181°
2026-05-07 22:13 -35.31997 -58.45560 24166 ft 417 kts 181°
2026-05-07 22:13 -35.34911 -58.45312 24821 ft 421 kts 182°
2026-05-07 22:13 -35.37806 -58.45082 25505 ft 424 kts 182°
2026-05-07 22:13 -35.40761 -58.44867 26207 ft 426 kts 182°
2026-05-07 22:14 -35.43725 -58.44667 26931 ft 427 kts 182°
2026-05-07 22:14 -35.46698 -58.44483 27658 ft 427 kts 183°
2026-05-07 22:14 -35.49681 -58.44316 28420 ft 427 kts 183°
2026-05-07 22:14 -35.52647 -58.44163 29204 ft 426 kts 184°
2026-05-07 22:15 -35.55613 -58.44027 29949 ft 425 kts 184°
2026-05-07 22:15 -35.58564 -58.43905 30615 ft 423 kts 184°
2026-05-07 22:15 -35.61464 -58.43799 31303 ft 421 kts 185°
2026-05-07 22:15 -35.64430 -58.43708 31594 ft 433 kts 185°
2026-05-07 22:16 -35.67504 -58.43645 31604 ft 451 kts 185°
2026-05-07 22:16 -35.70711 -58.43614 31609 ft 468 kts 186°
2026-05-07 22:16 -35.74019 -58.43610 31612 ft 482 kts 186°
2026-05-07 22:16 -35.77428 -58.43637 31609 ft 495 kts 186°
2026-05-07 22:17 -35.84455 -58.43765 31601 ft 514 kts 187°
2026-05-07 22:17 -35.91696 -58.43987 31607 ft 527 kts 187°
2026-05-07 22:18 -36.02780 -58.44478 31599 ft 539 kts 188°
2026-05-07 22:19 -36.10228 -58.44882 31596 ft 516 kts 188°
2026-05-07 22:19 -36.13758 -58.45069 31587 ft 496 kts 188°
2026-05-07 22:19 -36.17110 -58.45246 31584 ft 480 kts 189°
2026-05-07 22:19 -36.20399 -58.45418 31577 ft 467 kts 189°
2026-05-07 22:20 -36.23607 -58.45590 31580 ft 455 kts 189°
2026-05-07 22:20 -36.29803 -58.45930 31581 ft 437 kts 190°
2026-05-07 22:21 -36.34787 -58.46222 31573 ft 425 kts 191°
2026-05-07 22:21 -36.40610 -58.46588 31578 ft 413 kts 191°
2026-05-07 22:22 -36.46291 -58.46981 31574 ft 404 kts 192°
2026-05-07 22:22 -36.51853 -58.47405 31575 ft 397 kts 192°
2026-05-07 22:23 -36.57246 -58.48220 31571 ft 384 kts 200°
2026-05-07 22:23 -36.59925 -58.48594 31555 ft 392 kts 188°
2026-05-07 22:23 -36.62643 -58.48683 31574 ft 387 kts 192°
2026-05-07 22:23 -36.65350 -58.48624 31573 ft 394 kts 180°
2026-05-07 22:24 -36.68026 -58.48021 31574 ft 397 kts 169°
2026-05-07 22:24 -36.70660 -58.46887 31556 ft 403 kts 158°
2026-05-07 22:24 -36.73153 -58.45243 31572 ft 406 kts 146°
2026-05-07 22:24 -36.75424 -58.43135 31569 ft 407 kts 135°
2026-05-07 22:25 -36.77437 -58.40655 31569 ft 407 kts 129°
2026-05-07 22:25 -36.81403 -58.35562 31568 ft 411 kts 129°
2026-05-07 22:26 -36.85342 -58.30420 31573 ft 414 kts 129°
2026-05-07 22:26 -36.89354 -58.25211 31572 ft 417 kts 130°
2026-05-07 22:27 -36.93378 -58.19961 31569 ft 419 kts 130°
2026-05-07 22:27 -36.97423 -58.14684 31559 ft 420 kts 130°
2026-05-07 22:28 -37.01476 -58.09385 31561 ft 421 kts 130°
2026-05-07 22:28 -37.05527 -58.04077 31547 ft 422 kts 130°
2026-05-07 22:29 -37.09890 -57.99188 31546 ft 426 kts 143°
2026-05-07 22:29 -37.14936 -57.95163 31092 ft 436 kts 148°
2026-05-07 22:29 -37.17503 -57.93148 30681 ft 435 kts 148°
2026-05-07 22:30 -37.20072 -57.91145 30284 ft 434 kts 148°
2026-05-07 22:30 -37.22629 -57.89145 29887 ft 433 kts 148°
2026-05-07 22:30 -37.25179 -57.87140 29486 ft 431 kts 148°
2026-05-07 22:30 -37.27719 -57.85145 29045 ft 430 kts 148°
2026-05-07 22:31 -37.30249 -57.83158 28618 ft 428 kts 148°
2026-05-07 22:31 -37.32778 -57.81171 28182 ft 427 kts 148°
2026-05-07 22:31 -37.35259 -57.79219 27783 ft 425 kts 148°
2026-05-07 22:31 -37.37790 -57.77223 27378 ft 423 kts 148°
2026-05-07 22:32 -37.40247 -57.75289 26994 ft 421 kts 148°
2026-05-07 22:32 -37.42719 -57.73337 26600 ft 418 kts 148°
2026-05-07 22:32 -37.45184 -57.71392 26229 ft 416 kts 148°
2026-05-07 22:32 -37.47629 -57.69461 25864 ft 414 kts 148°
2026-05-07 22:33 -37.50068 -57.67531 25507 ft 412 kts 148°
2026-05-07 22:33 -37.52493 -57.65614 25144 ft 410 kts 148°
2026-05-07 22:33 -37.54897 -57.63708 24807 ft 407 kts 148°
2026-05-07 22:33 -37.57256 -57.61840 24478 ft 405 kts 148°
2026-05-07 22:34 -37.59639 -57.59949 24146 ft 403 kts 148°
2026-05-07 22:34 -37.62008 -57.58069 23813 ft 401 kts 148°
2026-05-07 22:34 -37.64365 -57.56197 23498 ft 398 kts 148°
2026-05-07 22:34 -37.66703 -57.54338 23185 ft 396 kts 148°
2026-05-07 22:35 -37.69036 -57.52484 22834 ft 394 kts 148°
2026-05-07 22:35 -37.71349 -57.50640 22458 ft 391 kts 148°
2026-05-07 22:35 -37.73650 -57.48808 22103 ft 389 kts 148°
2026-05-07 22:35 -37.75930 -57.46990 21748 ft 386 kts 148°
2026-05-07 22:36 -37.78164 -57.45207 21423 ft 383 kts 148°
2026-05-07 22:36 -37.80413 -57.43413 21075 ft 380 kts 148°
2026-05-07 22:36 -37.82646 -57.41626 20745 ft 377 kts 148°
2026-05-07 22:36 -37.84862 -57.39857 20382 ft 376 kts 148°
2026-05-07 22:37 -37.87086 -57.38074 19738 ft 382 kts 149°
2026-05-07 22:37 -37.89352 -57.36264 19056 ft 388 kts 148°
2026-05-07 22:37 -37.91638 -57.34427 18385 ft 390 kts 149°
2026-05-07 22:37 -37.93935 -57.32587 17714 ft 391 kts 148°
2026-05-07 22:38 -37.96020 -57.30375 16923 ft 392 kts 128°
2026-05-07 22:38 -37.97378 -57.27459 16174 ft 388 kts 109°
2026-05-07 22:38 -37.97904 -57.24153 15434 ft 379 kts 88°
2026-05-07 22:38 -37.97579 -57.20904 14722 ft 367 kts 68°
2026-05-07 22:39 -37.96519 -57.18047 14038 ft 353 kts 50°
2026-05-07 22:39 -37.94890 -57.15805 13370 ft 340 kts 33°
2026-05-07 22:39 -37.92890 -57.14319 12659 ft 329 kts 17°
2026-05-07 22:39 -37.90712 -57.13629 11947 ft 319 kts
2026-05-07 22:40 -37.88524 -57.13712 11264 ft 312 kts 347°
2026-05-07 22:40 -37.86474 -57.14507 10597 ft 307 kts 333°
2026-05-07 22:40 -37.84651 -57.15877 9969 ft 304 kts 326°
2026-05-07 22:40 -37.82863 -57.17299 9347 ft 303 kts 326°
2026-05-07 22:41 -37.81113 -57.18715 8689 ft 302 kts 326°
2026-05-07 22:41 -37.79337 -57.20136 8033 ft 301 kts 327°
2026-05-07 22:41 -37.77569 -57.21551 7401 ft 300 kts 327°
2026-05-07 22:41 -37.75850 -57.22938 6789 ft 280 kts 324°
2026-05-07 22:42 -37.74496 -57.24556 6200 ft 260 kts 311°
2026-05-07 22:42 -37.73506 -57.26387 5611 ft 246 kts 299°
2026-05-07 22:42 -37.72877 -57.28355 5021 ft 238 kts 289°
2026-05-07 22:42 -37.72604 -57.30370 4666 ft 225 kts 279°
2026-05-07 22:43 -37.72630 -57.32286 4405 ft 213 kts 268°
2026-05-07 22:43 -37.72912 -57.34124 4131 ft 239 kts 258°
2026-05-07 22:43 -37.73650 -57.36285 3892 ft 279 kts 244°
2026-05-07 22:43 -37.74782 -57.38178 3652 ft 263 kts 231°
2026-05-07 22:44 -37.76153 -57.39631 3398 ft 252 kts 217°
2026-05-07 22:44 -37.77680 -57.40645 3139 ft 246 kts 204°
2026-05-07 22:44 -37.79294 -57.41208 3038 ft 235 kts 192°
2026-05-07 22:44 -37.80889 -57.41340 2992 ft 225 kts 180°
2026-05-07 22:45 -37.82407 -57.41093 2976 ft 217 kts 167°
2026-05-07 22:45 -37.83801 -57.40523 2989 ft 199 kts 155°
2026-05-07 22:45 -37.84945 -57.39763 2974 ft 180 kts 144°
2026-05-07 22:45 -37.85974 -57.38930 2978 ft 172 kts 145°
2026-05-07 22:46 -37.86971 -57.38142 2978 ft 166 kts 144°
2026-05-07 22:46 -37.87940 -57.37375 2973 ft 162 kts 144°
2026-05-07 22:46 -37.88882 -57.36621 2976 ft 158 kts 144°
2026-05-07 22:46 -37.89793 -57.35895 2973 ft 156 kts 143°
2026-05-07 22:47 -37.90710 -57.35163 2977 ft 156 kts 143°
2026-05-07 22:47 -37.91624 -57.34430 2977 ft 155 kts 143°
2026-05-07 22:47 -37.92533 -57.33706 2975 ft 154 kts 141°
2026-05-07 22:47 -37.93442 -57.32983 2971 ft 154 kts 142°
2026-05-07 22:48 -37.94350 -57.32265 2976 ft 155 kts 147°
2026-05-07 22:48 -37.95403 -57.31977 2975 ft 158 kts 179°
2026-05-07 22:48 -37.96472 -57.32241 2902 ft 161 kts 210°
2026-05-07 22:48 -37.97380 -57.33108 2727 ft 167 kts 232°
2026-05-07 22:49 -37.98216 -57.34191 2551 ft 176 kts 230°
2026-05-07 22:49 -37.99087 -57.35316 2376 ft 181 kts 230°
2026-05-07 22:49 -37.99974 -57.36451 2203 ft 185 kts 229°
2026-05-07 22:49 -38.00888 -57.37626 2011 ft 189 kts 228°
2026-05-07 22:50 -38.01601 -57.39033 1782 ft 186 kts 262°
2026-05-07 22:50 -38.01691 -57.40517 1713 ft 146 kts 288°
2026-05-07 22:50 -38.01408 -57.41556 1658 ft 109 kts 311°
2026-05-07 22:50 -38.01026 -57.42300 1588 ft 100 kts 318°
2026-05-07 22:51 -38.00658 -57.43054 1601 ft 100 kts 320°
2026-05-07 22:51 -38.00274 -57.43813 1675 ft 104 kts 316°
2026-05-07 22:51 -37.99872 -57.44586 1681 ft 108 kts 316°
2026-05-07 22:51 -37.99470 -57.45391 1688 ft 109 kts 317°
2026-05-07 22:52 -37.99057 -57.46212 1697 ft 111 kts 315°
2026-05-07 22:52 -37.98617 -57.47062 1614 ft 121 kts 314°
2026-05-07 22:52 -37.98147 -57.47992 1467 ft 129 kts 314°
2026-05-07 22:52 -37.97651 -57.48976 1292 ft 135 kts 312°
2026-05-07 22:53 -37.97140 -57.49985 1098 ft 136 kts 313°
2026-05-07 22:53 -37.96631 -57.50991 913 ft 135 kts 313°
2026-05-07 22:53 -37.96125 -57.51992 779 ft 132 kts 308°
2026-05-07 22:53 -37.95643 -57.52940 652 ft 128 kts 304°
2026-05-07 22:54 -37.95171 -57.53874 516 ft 126 kts 300°
2026-05-07 22:54 -37.94694 -57.54803 360 ft 126 kts 296°
2026-05-07 22:54 -37.94233 -57.55724 197 ft 120 kts 298°
2026-05-07 22:54 -37.93800 -57.56575 54 ft 109 kts 294°
2026-05-07 22:55 -37.93449 -57.57258 45 ft 67 kts 287°
2026-05-07 22:55 -37.93247 -57.57669 47 ft 44 kts 302°
2026-05-07 22:55 -37.93136 -57.57888 47 ft 24 kts 301°
2026-05-07 22:55 -37.93133 -57.57953 48 ft 5 kts 231°
2026-05-07 22:56 -37.93152 -57.57974 48 ft 0 kts 221°
2026-05-07 22:56 -37.93179 -57.57999 47 ft 10 kts 214°
2026-05-07 22:57 -37.93241 -57.58043 47 ft 9 kts 189°
2026-05-07 22:57 -37.93285 -57.58027 47 ft 6 kts 162°
2026-05-07 22:57 -37.93300 -57.58024 47 ft 0 kts 174°
2026-05-07 22:58 -37.93306 -57.58024 47 ft 3 kts 179°
2026-05-07 22:59 -37.93339 -57.58039 47 ft 7 kts 206°
2026-05-07 22:59 -37.93381 -57.58055 47 ft 5 kts 181°
2026-05-07 22:59 -37.93423 -57.58057 47 ft 3 kts 196°
2026-05-07 22:59 -37.93455 -57.58066 47 ft 6 kts 166°
2026-05-07 23:00 -37.93486 -57.58055 47 ft 0 kts 168°
2026-05-07 23:00 -37.93488 -57.58055 47 ft 0 kts 159°
2026-05-07 23:00 -37.93489 -57.58046 47 ft 1 kts 60°
2026-05-07 23:00 -37.93481 -57.58045 47 ft 0 kts 355°